Regional Weather Roundup
Issued by NWS

Home | Current Version | Previous Version | Text Only | Print | Product List | Glossary Off
Versions: 1 2 3 4 5 6 7 8 9 10 11 12 13 14 15 16 17 18 19 20 21 22 23 24 25 26 27 28 29 30 31 32 33 34 35 36 37 38 39 40 41 42 43 44 45 46 47 48 49 50

000
ASUS43 KLMK 272102
RWRKY
KENTUCKY REGIONAL WEATHER ROUNDUP
NATIONAL WEATHER SERVICE LOUISVILLE KY
500 PM EDT MON MAR 27 2017

NOTE "FAIR" INDICATES FEW OR NO CLOUDS BELOW 12,000 FEET
WITH NO SIGNIFICANT WEATHER AND/OR OBSTRUCTIONS TO VISIBILITY.

KYZ001>023-026-027-061>063-070>075-272200-
WESTERN AND SOUTH CENTRAL KENTUCKY

CITY           SKY/WX    TMP DP  RH WIND       PRES   REMARKS
PADUCAH        CLOUDY    60  55  83 S9        29.78F
HENDERSON      CLOUDY    52  52 100 S9        29.80F THUNDER
OWENSBORO      TSTM      62  54  74 SW15G25   29.85R
HOPKINSVILLE   TSTM      57  57 100 CALM      29.86F FOG
BOWLING GREEN  CLOUDY    70  62  76 S13       29.82F
GLASGOW        NOT AVBL
$$

KYZ024-025-028>034-038-045-046-053-272200-
NORTH CENTRAL KENTUCKY

CITY           SKY/WX    TMP DP  RH WIND       PRES   REMARKS
LOUISVILLE/SDF LGT RAIN  69  57  65 S9        29.82F
LOUISVILLE/LOU LGT RAIN  71  56  58 S9        29.84F
FORT KNOX      CLOUDY    64  57  77 SE5       29.81F
$$

KYZ035>037-039>044-047>052-055>060-089>105-272200-
NORTHEAST KENTUCKY

CITY           SKY/WX    TMP DP  RH WIND       PRES   REMARKS
LEXINGTON      PTSUNNY   70  55  59 S8G17     29.87F
COVINGTON      PTSUNNY   68  55  63 S8        29.86F
FRANKFORT      PTSUNNY   71  54  54 S7        29.85F
$$

KYZ054-064>069-076>088-106>120-272200-
SOUTHEAST KENTUCKY

CITY           SKY/WX    TMP DP  RH WIND       PRES   REMARKS
JACKSON        LGT RAIN  64  59  83 SE3       29.92F
LONDON         CLOUDY    69  60  73 SE7       29.89F
SOMERSET       NOT AVBL
MIDDLESBORO    CLOUDY    73  56  54 S8        29.91F
MONTICELLO     CLOUDY    75  59  57 W17G25    29.88F
$$





USA.gov is the U.S. government's official web portal to all federal, state and local government web resources and services.